Location: Coffee Creek Observatory
(38.8077°N, 94.7179°W)
Time: 09:52:19
(UTC-05:00)

Daily predictions for brighter satellites

Satellite Brightness Start Highest point End
(mag) Time Altitude Azimuth Time Altitude Azimuth Time Altitude Azimuth
Sich 1 3.8 20:23:51 10° NNE 20:27:44 33° ENE 20:31:35 10° SE
ATLAS 2AS CENTAUR R/B 3.8 20:20:58 10° NNW 20:28:07 35° NE 20:34:47 10° ESE
Cosmos 1300 3.2 20:29:12 10° SSW 20:32:59 64° W 20:36:48 10° N
Cosmos 1346 Rocket 4.3 20:33:48 10° SSW 20:37:42 44° WNW 20:41:38 10° N
Nadezhda 3 Rocket 4.3 20:34:35 10° N 20:40:42 50° E 20:46:50 10° SSE
Cosmos 2360 Rocket 3.6 20:36:09 10° SW 20:41:31 44° WNW 20:46:54 10° N
OAO 2 Rocket 3.7 20:39:43 10° W 20:44:49 53° S 20:49:18 13° ESE
Cosmos 1633 Rocket 3.5 20:44:04 10° N 20:48:12 41° E 20:52:19 10° SSE
Cosmos 2333 Rocket 2.3 20:45:32 10° S 20:50:59 51° ESE 20:56:28 10° NNE
CZ-2D R/B 3.5 20:47:18 10° S 20:51:05 72° WSW 20:54:54 10° NNW
NOSS 2-1 (E) 3.4 20:47:48 10° SW 20:51:25 74° WNW 20:55:23 10° NNE
Meteor 2-15 Rocket 4.5 20:47:22 10° N 20:53:28 63° E 20:59:30 10° SSE
Meteor 2-2 Rocket 4.3 20:48:41 10° S 20:54:26 69° E 21:00:21 10° NNE
COSMOS 2428 2.8 20:50:26 10° SSW 20:56:10 83° WNW 21:01:56 10° NNE
Cosmos 1455 2.5 20:53:16 10° SSE 20:56:54 44° E 21:00:35 10° NNE
Cosmos 2228 Rocket 4.0 20:53:22 10° SSE 20:57:07 28° E 21:00:53 10° NNE
Cosmos 1515 Rocket 4.5 20:53:29 10° SSE 20:57:19 29° E 21:01:10 10° NNE
Cosmos 2221 4.5 20:53:31 10° SW 20:57:21 33° WNW 21:01:14 10° NNW
Cosmos 2333 4.4 20:52:57 10° SSW 20:58:36 76° WNW 21:04:15 10° NNE
ERS-2 2.2 20:55:45 10° S 20:59:24 78° WSW 21:03:05 10° NNW
BREEZE-M DEB (TANK) 4.2 20:56:05 10° WSW 21:00:29 77° NNW 21:18:40 10° ENE
Cosmos 1844 Rocket 2.7 20:55:03 10° NNW 21:00:46 87° ENE 21:06:25 10° SSE
Cosmos 1408 4.1 20:58:07 10° NNE 21:00:46 19° ENE 21:01:43 17° E
NOSS 3-3 (A) 3.9 20:58:17 10° SSW 21:04:14 82° ESE 21:10:46 10° NE
NOSS 3-3 (C) 3.9 20:58:23 10° SSW 21:04:20 81° ESE 21:10:52 10° NE
Cosmos 1844 3.7 20:58:39 10° NNW 21:04:22 72° ENE 21:09:33 13° SSE
Cosmos 1892 2.6 21:01:03 10° N 21:04:57 73° E 21:08:48 10° SSE
SL-8 R/B 3.8 21:02:19 10° SW 21:06:57 52° SE 21:11:38 10° ENE
Cosmos 2219 Rocket 2.2 21:03:53 10° SSW 21:09:33 88° ESE 21:15:14 10° NNE
H-2A R/B 3.6 21:07:50 15° E 21:09:36 17° ENE 21:12:47 10° NNE
Cosmos 2237 Rocket 2.5 21:04:56 10° S 21:10:09 42° ESE 21:15:25 10° NE
Cosmos 2154 Rocket 4.2 21:09:01 10° SSW 21:15:16 75° W 21:21:32 10° N
USA 267 4.1 21:10:12 10° ENE 21:15:18 24° ESE 21:20:21 10° S
YAOGAN 6 2.8 21:12:39 10° S 21:16:12 70° W 21:19:51 10° NNW
Cosmos 1328 Rocket 3.5 21:12:49 10° S 21:17:11 74° E 21:21:38 10° N
Genesis I 3.9 21:14:56 10° NNW 21:18:49 41° NE 21:20:27 27° ESE
Resurs 01 Rocket 1.6 21:16:04 10° SSE 21:20:28 85° WSW 21:24:57 10° NNW
Cosmos 2278 Rocket 2.7 21:15:18 10° N 21:20:40 42° ENE 21:23:35 24° ESE
SAR-Lupe-3 4.5 21:19:43 10° NNE 21:23:20 89° E 21:26:55 10° SSW
NOAA 11 4.2 21:20:32 17° SSE 21:24:49 67° ENE 21:30:18 10° N
Cosmos 2251 Rocket 4.1 21:20:17 10° NNW 21:25:34 58° WSW 21:30:47 10° S
Envisat 4.5 21:22:47 10° SSW 21:27:26 36° W 21:32:07 10° NNW
Cosmos 1470 Rocket 3.5 21:26:01 10° N 21:30:24 65° E 21:32:39 28° SSE
ATLAS CENTAUR R/B 1.4 21:27:53 10° SW 21:31:30 68° WNW 21:35:17 10° NNE
Cosmos 2341 Rocket 4.2 21:30:47 10° SSW 21:37:09 76° W 21:43:29 10° N
Cosmos 2056 Rocket 4.0 21:35:44 29° SE 21:37:39 38° ESE 21:42:38 10° NE
Cosmos 2098 Rocket 3.4 21:39:29 36° SE 21:40:47 45° E 21:44:40 10° NNE
Cosmos 2218 Rocket 4.0 21:37:26 11° S 21:43:26 67° E 21:49:46 10° NNE
Cosmos 1825 2.1 21:42:21 10° N 21:46:08 63° E 21:46:31 59° ESE
NOSS 0 Rocket 4.1 21:44:55 10° SSW 21:51:04 73° WNW 21:57:17 10° NNE
Cosmos 1624 Rocket 4.0 21:52:46 34° SSE 21:54:48 57° ESE 21:59:54 10° NNE
BREEZE-M DEB (TANK) 2.7 21:52:50 10° NW 21:55:38 54° NW 21:55:38 54° NW
Cosmos 2366 rocket 3.9 21:51:34 18° S 21:56:17 76° E 22:02:33 10° N
TRAILBLAZER 4.5 21:52:47 10° SSW 21:57:20 86° ESE 22:02:02 10° NNE
Cosmos 1933 Rocket 3.7 21:54:43 10° NNW 21:59:06 72° W 22:00:35 40° SSW
Cosmos 2344 4.0 21:58:41 35° SE 21:59:30 36° ESE 22:06:31 10° NE
SL-16 R/B 2.5 21:59:33 43° ESE 21:59:34 43° ESE 22:04:53 10° NE
Cosmos 1869 3.3 22:02:49 59° SSW 22:03:31 82° W 22:07:34 10° N
Terra 3.9 22:05:06 15° NE 22:05:06 15° NE 22:07:03 10° NNE
BREEZE-M DEB (TANK) 4.0 22:02:40 10° NW 22:04:23 24° NNW 22:04:23 24° NNW
Cosmos 1151 Rocket 4.0 22:01:27 11° SSW 22:05:25 46° W 22:09:33 10° N
SL-8 Rocket 4.3 21:59:43 10° SSW 22:05:59 68° W 22:12:16 10° N
GEOS 3 Rocket 3.5 22:02:02 10° NE 22:07:21 63° ESE 22:12:31 10° SSW
ARGOS 3.0 22:07:10 50° SSE 22:08:37 81° ENE 22:13:59 10° N
MetOp-B 4.0 22:12:10 57° SE 22:13:17 78° ENE 22:18:39 10° N
Cosmos 1339 Rocket 4.3 22:09:09 10° N 22:15:16 84° E 22:17:11 47° SSE
SPOT 5 3.6 22:19:20 37° NE 22:19:20 37° NE 22:22:46 10° N
Lacrosse 5 4.4 22:17:03 10° N 22:18:57 12° NNE 22:20:50 10° NE
ATLAS 2AS CENTAUR R/B 3.3 22:11:54 10° NW 22:19:32 58° WSW 22:22:42 34° S
Cosmos 1869 Rocket 4.1 22:17:00 10° N 22:20:23 46° NNE 22:20:23 46° NNE
Helios 1B rocket 4.5 22:18:34 10° NNE 22:19:46 18° NE 22:19:46 18° NE
Meteor 2-10 Rocket 3.9 22:27:11 33° SSW 22:29:49 70° W 22:35:38 10° N
Cosmos 2297 3.7 22:26:22 10° NNW 22:32:01 63° ENE 22:32:07 63° ENE
DMSP B5D2-2 4.3 22:27:20 10° NNE 22:31:43 55° ENE 22:31:43 55° ENE
Helios 1A 3.8 22:35:50 46° N 22:35:50 46° N 22:38:51 10° N
ATLAS 2A CENTAUR R/B 4.2 22:22:32 10° SW 22:36:23 34° S 22:36:37 34° S
SPOT 1/Viking Rocket 3.8 22:40:49 60° NE 22:40:49 60° NE 22:45:25 10° N
Cosmos 2369 Rocket 4.1 22:36:44 10° NNE 22:40:15 16° NE 22:40:16 16° NE
USA 81 4.1 22:37:49 10° N 22:43:04 69° W 22:43:21 67° WSW
H-2A R/B 2.4 22:48:28 54° WSW 22:48:35 54° W 22:53:29 10° NNW
NOSS 3-4 (A) 3.7 22:42:54 10° NNW 22:50:02 80° ENE 22:51:01 68° ESE
ERS-1 Rocket 3.4 22:50:13 57° W 22:50:13 57° W 22:55:04 10° NNW
NOSS 3-4 (C) 3.7 22:43:00 10° NNW 22:50:08 79° ENE 22:51:06 68° ESE
Cosmos 407 Rocket 3.7 22:46:47 10° NNW 22:51:21 63° WNW 22:51:21 63° WNW
SL-19 R/B 4.3 22:54:32 69° NNE 22:54:32 69° NNE 22:59:35 10° NNW
Cosmos 2237 Rocket 4.2 22:49:38 10° WSW 22:54:20 27° WNW 22:59:03 10° N
USA 267 3.2 22:52:08 10° NE 22:58:43 84° NW 23:05:15 10° SW
Cosmos 2278 Rocket 3.8 22:59:54 10° NW 23:04:28 26° WSW 23:05:28 24° WSW
ATLAS 5 CENTAUR R/B 4.0 23:07:44 10° N 23:12:22 23° NE 23:12:39 23° NE
Cosmos 1821 Rocket 4.1 23:17:40 72° WNW 23:17:40 72° WNW 23:23:46 10° N
USA 234 4.0 23:30:25 41° NE 23:31:05 42° NNE 23:37:08 10° NW
Cosmos 2123 Rocket 4.4 23:29:41 10° N 23:34:41 59° N 23:34:41 59° N
Terra 3.7 23:43:59 28° NNW 23:43:59 28° NNW 23:46:20 10° NNW
SL-16 R/B 4.0 23:41:17 19° W 23:43:50 26° WNW 23:48:32 10° N
